| time (UTC) | temp F | wind direction | speed MPH | gust MPH | rain 1hr in | rain 24hr in | rain mn in | humidity % | barometer mb |
| 20260504081549 | 79 | 38 | 11.0 | 17.0 | 0.00 | 0.00 | 0.00 | 86 | 1012.6 |
| 20260504050023 | 80 | 47 | 13.0 | 19.0 | 0.00 | 0.00 | 0.00 | 82 | 1014.7 |
| 20260504044524 | 80 | 43 | 11.0 | 17.0 | 0.00 | 0.00 | 0.00 | 82 | 1014.7 |
| 20260504043019 | 80 | 28 | 9.0 | 16.0 | 0.00 | 0.00 | 0.00 | 82 | 1014.9 |
| 20260504041534 | 80 | 20 | 10.0 | 16.0 | 0.00 | 0.00 | 0.00 | 82 | 1014.8 |
| 20260504040021 | 80 | 340 | 10.0 | 16.0 | 0.00 | 0.00 | 0.00 | 83 | 1014.8 |
| 20260504034515 | 80 | 28 | 8.0 | 15.0 | 0.00 | 0.00 | 0.00 | 82 | 1014.8 |
| 20260504033014 | 80 | 9 | 9.0 | 15.0 | 0.00 | 0.00 | 0.00 | 82 | 1014.7 |
| 20260504031512 | 81 | 9 | 8.0 | 15.0 | 0.00 | 0.00 | 0.00 | 82 | 1014.5 |
| 20260504030011 | 81 | 5 | 9.0 | 13.0 | 0.00 | 0.00 | 0.00 | 82 | 1014.4 |
| 20260504024511 | 81 | 13 | 7.0 | 15.0 | 0.00 | 0.00 | 0.00 | 81 | 1014.7 |
| 20260504023010 | 81 | 14 | 8.0 | 16.0 | 0.00 | 0.00 | 0.00 | 81 | 1014.3 |
| 20260504021509 | 81 | 34 | 7.0 | 18.0 | 0.00 | 0.00 | 0.00 | 81 | 1014.3 |
| 20260504020010 | 81 | 342 | 10.0 | 15.0 | 0.00 | 0.00 | 0.00 | 80 | 1014.1 |
| 20260504014511 | 82 | 24 | 12.0 | 17.0 | 0.00 | 0.00 | 0.00 | 80 | 1014.0 |
| 20260504013007 | 82 | 34 | 13.0 | 19.0 | 0.00 | 0.00 | 0.00 | 80 | 1014.0 |
| 20260504011506 | 82 | 30 | 11.0 | 18.0 | 0.00 | 0.00 | 0.00 | 80 | 1013.6 |
| 20260504010010 | 82 | 41 | 15.0 | 21.0 | 0.00 | 0.00 | 0.00 | 80 | 1013.4 |
| 20260504004510 | 83 | 45 | 12.0 | 18.0 | 0.00 | 0.00 | 0.00 | 79 | 1013.1 |
| 20260504003003 | 83 | 328 | 8.0 | 15.0 | 0.00 | 0.00 | 0.00 | 79 | 1012.8 |
| 20260504001506 | 83 | 326 | 11.0 | 17.0 | 0.00 | 0.00 | 0.00 | 79 | 1012.8 |
| 20260504000002 | 84 | 355 | 10.0 | 14.0 | 0.00 | 0.00 | 0.00 | 78 | 1012.4 |
| 20260503234502 | 84 | 5 | 9.0 | 17.0 | 0.00 | 0.00 | 0.00 | 77 | 1012.4 |
| 20260503233001 | 84 | 17 | 11.0 | 17.0 | 0.00 | 0.00 | 0.00 | 77 | 1012.1 |
| 20260503230105 | 85 | 5 | 9.0 | 16.0 | 0.00 | 0.00 | 0.00 | 76 | 1011.9 |
| 20260503224609 | 86 | 36 | 10.0 | 18.0 | 0.00 | 0.00 | 0.00 | 76 | 1011.9 |
| 20260503223058 | 86 | 38 | 8.0 | 16.0 | 0.00 | 0.00 | 0.00 | 76 | 1011.8 |
| 20260503221606 | 86 | 355 | 10.0 | 16.0 | 0.00 | 0.00 | 0.00 | 75 | 1011.5 |
| 20260503220057 | 87 | 350 | 7.0 | 15.0 | 0.00 | 0.00 | 0.00 | 74 | 1011.3 |
| 20260503214556 | 88 | 23 | 9.0 | 14.0 | 0.00 | 0.00 | 0.00 | 73 | 1011.4 |
| 20260503213057 | 88 | 350 | 11.0 | 15.0 | 0.00 | 0.00 | 0.00 | 71 | 1011.4 |
| 20260503211556 | 89 | 342 | 7.0 | 12.0 | 0.00 | 0.00 | 0.00 | 69 | 1011.6 |
| 20260503210055 | 90 | 22 | 6.0 | 14.0 | 0.00 | 0.00 | 0.00 | 69 | 1011.9 |
| 20260503204616 | 91 | 355 | 7.0 | 14.0 | 0.00 | 0.00 | 0.00 | 66 | 1011.8 |
| 20260503203057 | 91 | 36 | 8.0 | 12.0 | 0.00 | 0.00 | 0.00 | 65 | 1012.2 |
| 20260503201551 | 91 | 360 | 7.0 | 14.0 | 0.00 | 0.00 | 0.00 | 66 | 1012.4 |
| 20260503200050 | 91 | 37 | 9.0 | 15.0 | 0.00 | 0.00 | 0.00 | 65 | 1012.5 |
| 20260503194548 | 92 | 19 | 9.0 | 15.0 | 0.00 | 0.00 | 0.00 | 65 | 1012.7 |
| 20260503193048 | 92 | 355 | 6.0 | 16.0 | 0.00 | 0.00 | 0.00 | 65 | 1012.9 |
| 20260503191605 | 91 | 19 | 10.0 | 16.0 | 0.00 | 0.00 | 0.00 | 65 | 1013.0 |
| 20260503190039 | 91 | 338 | 6.0 | 15.0 | 0.00 | 0.00 | 0.00 | 66 | 1013.1 |
| 20260503184538 | 91 | 350 | 8.0 | 15.0 | 0.00 | 0.00 | 0.00 | 66 | 1013.5 |
| 20260503183037 | 90 | 46 | 9.0 | 17.0 | 0.00 | 0.00 | 0.00 | 67 | 1013.6 |
| 20260503181545 | 90 | 314 | 5.0 | 16.0 | 0.00 | 0.00 | 0.00 | 68 | 1013.6 |
| 20260503180036 | 90 | 346 | 7.0 | 16.0 | 0.00 | 0.00 | 0.00 | 68 | 1013.9 |
| 20260503174534 | 88 | 5 | 9.0 | 16.0 | 0.00 | 0.00 | 0.00 | 70 | 1013.9 |
| 20260503173030 | 89 | 9 | 11.0 | 16.0 | 0.00 | 0.00 | 0.00 | 71 | 1014.1 |
| 20260503171527 | 88 | 277 | 9.0 | 17.0 | 0.00 | 0.00 | 0.00 | 71 | 1014.4 |
| 20260503160119 | 87 | 355 | 8.0 | 17.0 | 0.00 | 0.00 | 0.00 | 75 | 1014.8 |